Regional Weather Roundup
Issued by NWS Newport/Morehead, NC

Current Version | Previous Version | Graphics & Text | Print | Product List | Glossary On
Versions: 1 2 3 4 5 6 7 8 9 10 11 12 13 14 15 16 17 18 19 20 21 22 23 24 25 26 27 28 29 30 31 32 33 34 35 36 37 38 39 40 41 42 43 44 45 46 47 48 49 50
000 ASUS42 KMHX 051125 RWRMHX WEATHER ROUNDUP FOR EASTERN NORTH CAROLINA NATIONAL WEATHER SERVICE NEWPORT/MOREHEAD CITY NC 700 AM EDT THU MAY 05 2016 NOTE: "FAIR" INDICATES FEW OR NO CLOUDS BELOW 12,000 FEET WITH NO SIGNIFICANT WEATHER AND/OR OBSTRUCTIONS TO VISIBILITY NCZ015>017-031-032-045>047-102-103-051200- NORTH COAST CITY SKY/WX TMP DP RH WIND PRES REMARKS EDENTON CLOUDY 55 55 100 NE5 29.59R FOG ELIZABETH CITY CLOUDY 53 52 96 NE15 29.58R FOG KITTY HAWK FOG 53 53 100 NE9G17 29.55S VSB 1 MANTEO CLOUDY 53 53 100 NE14G21 29.56S FOG $$ NCZ045>047-081-094-103-104-051200- CENTRAL COAST CITY SKY/WX TMP DP RH WIND PRES REMARKS FRISCO CLOUDY 56 55 97 NE8G16 29.53S SWANQUARTER NOT AVBL $$ NCZ095-097-098-100-101-051200- SOUTHERN COAST CITY SKY/WX TMP DP RH WIND PRES REMARKS BEAUFORT CLOUDY 60 57 89 NE8 29.52S CEDAR ISLAND NOT AVBL JACKSONVILLE CLOUDY 63 60 90 NE7 29.53R PINEY ISLAND NOT AVBL WILMINGTON CLOUDY 61 60 97 W5 29.53S FOG $$ NCZ011>013-027>030-043-044-078>080-089-090>093-098-051200- COASTAL PLAIN CITY SKY/WX TMP DP RH WIND PRES REMARKS AHOSKIE CLOUDY 53 52 95 NE6 29.59R CLINTON CLOUDY 61 61 100 E3 29.54S FOG ELIZABETHTOWN CLEAR 57 55 94 CALM 29.54R GOLDSBORO CLOUDY 61 61 100 E7 29.54R GREENVILLE CLOUDY 57 55 94 NE7 29.60R HAVELOCK MOCLDY 60 56 86 N9 29.55R KENANSVILLE CLOUDY 61 60 97 CALM 29.55S FOG KINSTON CLOUDY 59 59 100 NE5 29.56R FOG NEW BERN CLOUDY 59 55 87 E9 29.55S RICHLANDS CLOUDY 62 61 96 E7 29.54R ROCKY MOUNT CLOUDY 58 54 86 NE8 29.56S WASHINGTON CLOUDY 57 55 91 E7 29.56R WHITEVILLE NOT AVBL $$ AMZ130-135-150-152-154-156-158-170-250-252-270-ANZ085-086-088-633-658-670-051200- MARINE OBSERVATIONS STATION/POSITION TIME TEMP WIND PRES WAVE SWELL AIR SEA DIR/SP/G HT/PER HT/PER (UTC) (F) (DEG/KT/KT) (MB) (FT/S) (FT/S) CHESAPEAKE LIGHT 1100 49 40/ 22/ 26 1002.3 64 E VA BEACH 1050 52 53 20/ 16/ 19 1000.2 5/ 7 2/ 9 DUCK 1100 52 61 20/ 19/ 22 1000.5 2 E DUCK 1011 60 N/A 4/ 6 OREGON INLET 1100 54 62 10/ 11/ 15 1000.5 13E OREGON INLT 1100 58 N/A 4/ 7 3/ 7 HATTERAS CG 1100 58 69 30/ 13/ 21 999.7 DIAMOND BUOY 1050 62 71 10/ 16/ 19 999.2 4/ 7 2/ 8 CAPE LOOKOUT 1100 63 40/ 17/ 20 999.0 BEAUFORT LAB 1100 61 67 20/ 9/ 12 998.7 30 SE NEW RVR IN 1025 73 N/A 4/ 4 27 SE WRIGHTSVLE 1108 69 72 60/ 12/ 16 998.9 5 SE WRIGHTSVLE 1108 67 69 70/ 8/ 12 1000.2 225 S CAPE HAT 1050 67 73 340/ 14/ 17 998.8 6/ 7 3/ 7 41 SE CHARLESTON 1050 69 74 300/ 16/ 17 1000.6 4/ 4 2/ 8 $$

USA.gov is the U.S. government's official web portal to all federal, state and local government web resources and services.